Lid_Strength_Index
1 1 1 1 1 1 1 1 0 0 0 0 0 -0 0 0 1 1 1 1 1 1
1 1 1 1 1 1 1 1 0 0 0 0 0 0 0 1 1 1 1 1 1 1
1 1 1 1 1 1 1 0 1 1 0 0 0 0 0 1 0 1 1 1 1 1
1 1 1 1 1 1 1 0 1 1 1 1 1 0 1 1 1 1 1 1 1 1
1 1 1 1 1 1 1 0 0 0 1 1 1 1 1 1 1 1 2 1 1 1
2 2 2 1 1 1 1 1 1 1 1 1 1 1 1 1 1 1 1 1 1 1
2 2 1 1 1 1 1 1 1 1 1 1 1 1 1 1 1 1 1 1 1 1
2 1 2 2 1 1 1 1 1 1 1 1 1 1 1 1 1 1 1 1 1 1
5 4 4 2 1 1 1 1 1 1 1 1 1 2 2 1 1 1 1 2 1 1
5 4 3 4 1 1 1 1 1 1 1 1 1 4 3 3 0 1 1 1 1 1
3 2 2 2 2 2 1 1 2 1 1 1 1 5 5 3 0 1 1 1 1 1
2 2 2 2 2 2 2 2 2 1 1 1 1 7 7 4 1 1 1 1 1 1
2 2 3 3 2 1 1 2 1 1 1 3 1 9 8 5 1 2 2 1 1 3
1 1 1 3 4 3 4 2 2 2 1 1 1 2 9 10 1 2 2 2 2 1